Hourly Weather Roundup
Issued by NWS Central Illinois

Home | Current Version | Previous Version | Text Only | Print | Product List | Glossary On
Versions: 1 2 3 4 5 6 7 8 9 10 11 12 13 14 15 16 17 18 19 20 21 22 23 24 25 26 27 28 29 30 31 32 33 34 35 36 37 38 39 40 41 42 43 44 45 46 47 48 49 50
000
NZUS43 KILX 031910
HWRILX

AREA WEATHER ROUNDUP
NATIONAL WEATHER SERVICE, LINCOLN IL
200 PM CDT THU SEP 03 2015


CITY           SKY/WX    TMP DP  RH WIND       PRES   REMARKS
BLOOMINGTON    MOSUNNY   91  68  46 SW6       29.97F HX  95
CHAMPAIGN      MOSUNNY   92  65  40 SW8       29.97F HX  94
DANVILLE       SUNNY     90  69  50 SW8       29.95S HX  94
DECATUR        SUNNY     92  66  42 SW8       29.96F HX  94
EFFINGHAM      MOSUNNY   91  62  37 SW9       29.99F HX  92
FLORA          MOSUNNY   90  66  43 W7        29.98F HX  92
GALESBURG      PTSUNNY   91  70  50 SW8       29.94F HX  96
JACKSONVILLE   MOSUNNY   93  67  43 W7        29.95F HX  96
LACON          MOSUNNY   89  68  49 SW5       29.93F HX  93
LAWRENCEVILLE  SUNNY     92  66  42 VRB5      29.98F HX  94
LITCHFIELD     SUNNY     90  66  45 S7        29.97F HX  92
$$


CITY           SKY/WX    TMP DP  RH WIND       PRES   REMARKS
LINCOLN        MOSUNNY   95  64  34 SW5       29.93F HX  97
MACOMB         MOSUNNY   92  65  41 S7        29.97S HX  94
MATTOON        SUNNY     90  63  40 SW8       29.97F HX  91
MT CARMEL AP   MOSUNNY   91  63  38 CALM      29.98F HX  92
OLNEY-NOBLE AP PTSUNNY   91  68  46 W5        29.98F HX  95
PARIS          PTSUNNY   90  67  46 SW8G16    29.98F HX  93
PEORIA         SUNNY     93  67  42 W9        29.94F HX  96
PONTIAC        PTSUNNY   89  72  56 W9        29.96F HX  95
RANTOUL        NOT AVBL
ROBINSON       SUNNY     90  68  47 W8        29.99F HX  94
SPRINGFIELD    MOSUNNY   92  68  45 SW8       29.95F HX  96
TAYLORVILLE    MOSUNNY   91  68  46 SW6       29.96F HX  95
$$

...REGIONAL REPORTS...


CITY           SKY/WX    TMP DP  RH WIND       PRES   REMARKS
CHICAGO O`HARE MOSUNNY   89  68  49 SW12      29.91F HX  93
KANKAKEE       MOSUNNY   91  71  52 W13       29.95F HX  97
MOLINE         MOSUNNY   90  70  51 W8        29.91F HX  95
MOUNT STERLING SUNNY     89  67  47 SW5       29.95F HX  92
MOUNT VERNON   MOSUNNY   91  70  49 SW8       29.99F HX  97
PITTSFIELD     SUNNY     92  64  39 SW6       29.96F HX  94
QUINCY         SUNNY     92  66  42 W12       29.94F HX  94
ROCKFORD       MOSUNNY   88  73  61 W6        29.94F HX  95
$$


CITY           SKY/WX    TMP DP  RH WIND       PRES   REMARKS
BURLINGTON     SUNNY     90  70  51 SW7       29.93F HX  95
CEDAR RAPIDS   SUNNY     88  76  67 SE8       29.91F HX  99
DES MOINES     MOSUNNY   88  72  58 S10       29.88F HX  94
KIRKSVILLE     SUNNY     91  67  44 S10       29.95F HX  94
OTTUMWA        SUNNY     89  72  56 SW9       29.89F HX  96
ST LOUIS       MOSUNNY   92  66  42 W12       29.97F HX  94
$$


CITY           SKY/WX    TMP DP  RH WIND       PRES   REMARKS
TERRE HAUTE    MOSUNNY   91  66  43 W10       29.98F HX  93
EVANSVILLE     MOSUNNY   91  67  44 CALM      29.99F HX  94
INDIANAPOLIS   MOSUNNY   90  65  43 SW12      29.98F HX  92
LAFAYETTE      MOSUNNY   90  65  43 W13       29.95F HX  92
MADISON        PTSUNNY   86  72  62 VRB7      29.92F HX  92
MILWAUKEE      PTSUNNY   80  70  71 E7        29.91F HX  83
$$




USA.gov is the U.S. government's official web portal to all federal, state and local government web resources and services.